Location: Unspecified
(0.0000°N, 0.0000°E)
Time: 22:19:47
(UTC+00:00)

S-56A Canister/Altair - Pass Details

Date: 02 October 2020
Orbit: 633 x 2499 km, 38.9° (Epoch: 27 October)

Event Time Altitude Azimuth Distance (km) Brightness Sun altitude
Rises 19:30:49 0° 331° (NNW) 5,499 12.2 -25.4°
Reaches altitude 10° 19:36:08 10° 345° (NNW) 4,143 11.3 -26.7°
Enters shadow 19:42:39 20° 23° (NNE) 2,924 10.2 -28.3°
Maximum altitude 19:43:14 20° 28° (NNE) 2,871 - -28.5°
Drops below altitude 10° 19:48:45 10° 73° (ENE) 3,116 - -29.8°
Sets 19:51:59 0° 90° (E) 3,797 - -30.6°
